星链-3640 (STARLINK-3640 )

导读 | 星芒AI

STARLINK-3640 是 SpaceX Starlink 卫星互联网项目中的第 3640 颗卫星。该卫星属于低轨通信卫星群,旨在为全球用户提供高速、低延迟的互联网服务。它采用先进推进系统和激光通信技术,以提升网络效率和稳定性。STARLINK-3640 于近期由猎鹰 9 号火箭发射入轨,进一步扩展 Starlink 的覆盖范围,支持偏远地区通信,并为未来星链计划的扩展奠定基础。

基本信息
目录编号:
51988
目录名称:
STARLINK-3640
国际标识:
2022-025AJ
轨道中心:
EARTH
卫星名称:
星链-3640
卫星全名:
星链-3640 (STARLINK-3640 )
卫星状态:
在轨 (已飞行1383 天)
发射日期:
2022-03-09 UTC
国别 :
美国 (US)
星等 :
--
轨道信息
数据来源 国际轨道数据 AOE轨道数据
星历时间 2025-12-21T03:18:19+0800
5小时前
查看轨道信息
2025-12-14T09:00:00+0800
6天前
查看轨道信息
半长轴 6917.974km 6917.863km
偏心率 0.0001341 0.0001799
轨道倾角 53.217° 53.215°
近地点辐角 91.022° 45.586°
升交点赤经 33.252° 63.607°
平近点角 269.092° 280.802°
近地点 538.909km 538.483km
远地点 540.765km 540.973km
周期 95.439分钟 95.437分钟
每日圈数 15.088094 15.088458
详细信息
固有亮度:
5
最大亮度:
2.5
卫星平台:
Starlink v1.5
覆盖范围:
全球
运营商:
太空探索技术公司
运营商所在国:
美国
制造商(研发单位):
太空探索技术公司
制造商所在国:
美国
使用方式:
暂无
卫星简介
星链(Starlink)计划是由太空探索技术公司(SpaceX)提出的一个巨型低轨卫星互联网星座项目,计划在2019年至2024年间在太空搭建由约1.2万颗卫星组成的“星链”网络,其中1584颗将部署在地球上空550千米处的近地轨道,并从2020年开始工作。该卫星仍在工作。
2D轨道图
3D轨道图
轨道高度分析图
轨道倾角分析图
轨道综合分析图
查看轨道综合分析图